Wind_Speed
4 3 3 3 3 4 5 6 5 4 4 3 4 5 5 5 5 5 5 5 5 4 5 5 6 6 7 7 7 6 6 6 5 5 5 4 4 4 4 4 4 5 5
4 4 4 4 4 5 6 6 5 5 5 4 5 6 6 6 6 5 5 6 6 6 6 6 6 6 7 7 7 6 6 5 5 4 5 4 4 4 4 5 6 6 7
5 5 6 5 5 6 6 6 6 6 6 5 6 6 6 6 6 5 5 6 7 8 8 7 7 7 7 7 6 6 5 5 5 5 5 4 5 5 5 6 7 7 8
6 7 7 6 6 6 6 7 7 6 6 6 6 7 7 6 6 6 7 8 9 10 9 8 7 8 7 7 7 6 6 6 6 6 5 5 6 6 7 8 8 9 9
6 7 6 6 6 6 6 7 7 7 7 7 7 8 7 7 8 8 8 9 9 10 9 8 8 8 7 7 7 7 7 7 6 6 6 7 7 8 8 8 9 10 10
6 6 5 6 6 7 7 7 7 8 8 8 8 8 8 8 9 10 10 10 10 10 9 9 9 8 8 8 8 8 8 7 7 7 7 8 8 8 9 9 10 11 12
6 5 5 6 7 7 8 8 8 8 9 9 9 9 9 9 9 11 11 11 10 9 9 9 9 9 8 9 9 9 8 8 8 8 8 9 10 10 10 10 11 11 12
7 7 7 7 8 8 8 9 10 9 9 9 9 9 9 9 10 10 11 11 10 10 10 10 10 10 9 9 9 9 9 10 10 10 10 10 11 11 11 11 11 11 12
9 9 9 9 9 9 9 10 10 9 9 9 9 9 10 10 11 11 11 10 10 10 11 11 11 11 10 10 10 11 11 11 11 11 10 11 12 12 12 12 12 12 13
10 10 9 10 10 10 11 11 10 10 10 10 10 10 11 11 11 11 11 12 11 11 11 12 12 12 11 12 11 11 11 11 12 12 12 12 12 12 12 13 13 14 14
11 10 10 11 11 11 12 11 12 12 12 12 12 12 11 12 12 12 12 12 12 12 12 13 13 12 12 12 11 11 11 11 12 13 13 13 13 13 13 13 14 14 15
12 12 12 12 13 13 13 13 13 13 13 13 13 13 12 12 12 12 12 13 13 13 13 13 13 13 12 11 11 11 11 11 12 13 13 13 13 14 14 14 14 15 15
14 14 14 14 14 13 14 14 14 14 14 14 13 13 13 13 13 13 13 13 13 13 13 13 13 13 12 12 13 13 13 13 13 13 14 14 14 15 15 15 15 15 15
15 15 15 15 14 14 14 15 15 15 14 14 14 14 14 14 14 14 13 13 13 13 13 14 13 13 13 13 14 14 14 14 14 14 15 15 15 15 16 16 17 17 17
16 15 15 15 15 15 15 15 16 16 16 16 16 16 16 16 15 15 15 14 14 14 14 14 14 14 13 13 14 15 15 15 15 15 15 15 15 16 17 18 19 19 20
16 16 15 15 15 15 16 17 17 16 17 18 18 18 17 16 16 16 16 15 15 14 14 13 14 14 14 15 15 15 15 16 16 16 16 16 17 17 18 19 20 21 21
18 18 17 16 16 17 17 17 17 17 18 18 18 17 17 17 17 17 17 16 15 15 14 14 15 15 15 15 15 16 16 16 16 17 17 18 18 19 19 20 21 22 23
20 19 19 19 19 19 19 19 18 18 18 17 17 17 17 17 16 16 16 16 15 15 15 16 16 16 16 16 16 17 17 17 17 17 18 19 19 21 21 22 23 24 25
21 21 20 19 20 20 20 19 19 19 18 18 18 18 17 17 16 16 16 17 16 16 16 17 17 18 17 17 17 17 17 18 18 19 19 20 21 22 23 24 25 26 26
21 21 21 20 20 20 20 20 21 20 19 19 19 19 18 17 17 17 17 18 18 18 18 19 18 18 18 18 18 19 19 20 20 21 21 22 23 23 24 25 26 27 27
21 22 21 21 21 21 21 21 21 21 20 20 19 19 18 18 19 19 19 19 19 19 19 20 20 19 19 19 20 20 21 22 22 22 23 23 24 24 25 26 27 27 28
22 22 22 22 21 21 21 21 21 21 21 20 20 19 20 20 20 20 20 20 20 21 21 21 21 21 21 21 21 22 22 23 23 23 24 24 25 25 26 26 27 27 28
22 23 23 23 22 22 22 22 21 21 21 21 20 20 20 21 21 21 21 21 22 22 22 22 23 23 23 23 23 24 24 24 24 24 25 25 26 26 26 27 27 28 28
23 23 24 24 24 23 22 22 21 22 22 22 21 21 21 22 22 22 22 22 22 23 23 24 24 24 24 24 24 25 25 25 25 25 25 26 26 26 26 27 27 28 28
24 24 24 25 25 24 23 23 23 23 24 24 23 23 23 23 23 24 24 24 24 24 25 25 25 25 25 25 25 25 26 26 26 26 26 26 26 27 27 27 27 27 28
25 25 25 25 25 25 25 24 23 23 24 24 24 24 23 24 24 24 25 25 25 25 25 26 26 26 26 26 26 26 25 26 26 26 27 27 27 27 27 27 28 28 28
Wind_Direction
350 345 337 335 325 321 321 320 318 314 313 313 323 325 325 326 331 331 321 321 324 314 310 313 313 316 318 314 310 305 301 299 299 295 285 275 274 276 276 276 276 278 282
332 332 324 323 325 322 319 319 317 311 308 314 323 324 324 321 322 326 331 323 320 314 305 303 306 312 314 313 310 304 298 299 301 292 281 274 278 277 275 278 278 280 283
314 319 318 308 320 323 320 318 312 314 313 317 326 327 324 321 324 327 318 320 314 314 311 304 302 306 309 312 311 304 290 293 298 296 292 281 277 283 282 279 279 281 281
300 303 311 306 307 316 317 314 309 310 314 319 323 327 319 319 320 318 317 315 314 316 312 310 299 300 301 306 309 307 296 292 294 294 292 284 279 283 285 282 279 280 282
296 304 305 304 305 309 311 311 310 309 309 311 318 317 315 314 317 316 317 317 318 320 315 313 304 301 299 298 300 298 293 294 295 293 294 291 282 283 283 280 280 281 281
290 298 299 299 306 306 306 307 306 307 308 308 313 312 312 313 314 316 316 316 317 316 312 305 303 300 301 298 294 292 290 289 294 297 298 295 284 285 287 286 284 282 282
283 287 299 302 306 310 307 305 304 303 305 305 308 308 308 310 312 314 315 315 315 314 314 309 303 300 302 300 297 295 290 287 291 295 299 298 293 290 290 289 285 284 283
280 285 291 299 301 304 305 303 303 300 300 300 305 309 307 307 309 310 314 313 312 313 312 311 305 302 301 300 297 293 290 289 290 293 296 298 298 296 292 288 286 285 288
276 280 285 292 294 297 301 302 299 296 297 301 304 303 303 303 303 304 310 314 311 311 310 308 308 304 300 299 294 290 288 288 290 293 296 297 296 295 293 292 289 287 288
271 277 285 290 289 292 296 297 294 294 295 298 297 297 297 299 303 304 305 308 308 308 307 304 304 302 298 296 294 288 287 287 288 289 291 295 295 296 293 292 293 291 288
266 272 279 286 287 290 289 289 289 290 291 292 292 294 297 298 300 301 302 305 305 307 305 304 303 299 298 296 295 290 291 289 290 292 292 293 293 296 297 297 296 293 291
264 267 275 284 285 285 285 285 285 287 285 285 286 288 293 295 298 299 300 301 303 307 308 305 303 298 294 293 292 290 293 291 292 295 296 296 294 293 294 295 296 295 294
262 266 272 280 283 285 284 283 284 287 284 280 281 285 288 289 292 295 296 299 300 303 307 307 303 299 295 293 292 290 290 288 290 292 293 295 293 292 293 295 297 296 294
260 266 271 277 281 285 286 283 282 282 281 280 281 281 282 284 287 289 291 296 299 301 305 303 303 301 296 294 294 293 293 290 288 290 292 293 293 292 293 296 298 297 295
258 264 270 275 278 281 282 283 283 282 281 279 281 280 280 283 285 288 288 292 297 299 302 302 302 303 298 296 296 298 297 292 290 290 292 292 293 293 293 295 297 297 296
257 261 265 268 273 277 278 280 282 285 284 281 278 278 279 282 284 288 290 293 295 298 300 297 297 300 300 297 295 298 299 292 288 290 291 292 295 295 295 295 296 297 297
255 259 261 264 270 275 278 277 281 285 283 283 278 278 280 281 285 287 288 290 292 294 295 294 294 295 296 296 295 296 295 292 289 291 290 290 293 295 295 295 297 297 297
255 258 258 262 268 271 274 275 278 281 282 283 281 281 280 283 284 283 285 287 290 292 294 294 295 295 294 294 295 294 293 290 291 292 291 291 293 294 294 294 294 295 296
252 253 256 261 266 269 271 274 276 276 278 279 278 280 281 280 279 280 282 284 287 289 292 297 297 296 292 290 292 292 292 292 293 294 293 293 293 295 295 296 296 296 296
247 251 256 262 267 270 273 274 275 277 278 279 278 278 277 277 277 279 282 284 284 287 290 294 295 295 294 290 291 292 292 294 293 294 295 295 295 294 295 296 297 297 296
245 251 257 264 268 272 275 274 274 275 276 277 275 273 274 275 277 280 282 285 284 285 289 292 293 294 294 295 295 295 293 292 292 293 294 295 296 295 294 295 296 297 298
247 252 258 264 269 272 274 275 273 271 272 274 273 272 273 274 276 277 281 284 283 284 288 290 292 293 293 293 294 294 294 294 293 292 293 294 294 294 295 295 296 297 298
248 252 256 261 266 271 273 273 272 271 270 271 273 275 275 274 276 280 282 283 284 285 286 288 291 293 292 291 292 293 293 294 294 295 295 294 294 294 294 295 296 297 298
251 253 257 261 265 269 270 269 268 267 267 269 272 273 275 275 276 278 281 283 283 283 284 286 290 292 292 292 292 293 293 293 294 295 296 295 294 294 295 297 297 297 298
251 254 258 261 265 266 267 269 268 267 267 269 270 271 272 274 275 277 279 282 282 282 284 285 288 289 291 290 290 292 292 292 294 294 294 295 296 297 297 297 297 298 299
250 254 258 261 263 264 265 267 267 266 266 268 269 269 271 273 276 277 278 279 281 282 283 285 287 288 288 288 289 291 293 293 294 295 294 294 295 296 297 297 297 298 299
Height
5921 5920 5920 5919 5918 5917 5917 5916 5915 5914 5913 5912 5912 5911 5910 5909 5908 5908 5907 5906 5905 5905 5904 5904 5903 5902 5901 5900 5899 5899 5898 5897 5897 5896 5896 5895 5895 5895 5895 5895 5895 5895 5894
5921 5920 5919 5919 5918 5917 5916 5915 5914 5913 5912 5912 5911 5910 5909 5908 5907 5907 5906 5906 5905 5904 5903 5903 5902 5901 5900 5899 5898 5897 5897 5896 5896 5895 5895 5895 5895 5894 5894 5894 5894 5893 5893
5920 5920 5919 5918 5917 5916 5915 5915 5914 5913 5912 5911 5910 5909 5908 5907 5907 5906 5906 5905 5904 5903 5902 5901 5900 5900 5899 5898 5897 5896 5896 5896 5895 5894 5894 5894 5894 5893 5893 5892 5892 5892 5891
5919 5918 5917 5917 5916 5915 5914 5914 5913 5912 5911 5910 5910 5909 5908 5907 5906 5905 5905 5904 5903 5902 5900 5899 5899 5898 5897 5896 5896 5895 5895 5894 5894 5893 5892 5892 5892 5892 5891 5891 5890 5889 5889
5918 5917 5916 5916 5915 5914 5913 5913 5912 5911 5910 5909 5909 5908 5907 5906 5905 5905 5904 5903 5902 5901 5899 5898 5897 5897 5896 5895 5894 5894 5893 5893 5892 5891 5891 5890 5890 5890 5889 5889 5888 5888 5887
5917 5916 5915 5915 5914 5913 5912 5912 5911 5910 5909 5908 5907 5906 5906 5905 5904 5904 5902 5901 5900 5899 5898 5897 5896 5895 5894 5894 5893 5892 5891 5891 5891 5890 5889 5889 5888 5887 5887 5886 5886 5885 5884
5916 5915 5915 5914 5913 5912 5911 5910 5910 5909 5908 5907 5906 5905 5904 5904 5903 5902 5901 5899 5898 5897 5896 5896 5895 5894 5893 5892 5891 5890 5890 5890 5889 5888 5888 5887 5886 5885 5884 5884 5883 5882 5881
5914 5914 5913 5913 5912 5911 5910 5909 5908 5907 5907 5905 5904 5904 5903 5902 5901 5900 5899 5897 5896 5896 5895 5894 5893 5892 5891 5890 5889 5889 5888 5888 5887 5886 5886 5885 5884 5883 5882 5881 5881 5880 5879
5912 5912 5912 5911 5910 5909 5908 5907 5906 5906 5905 5904 5903 5903 5901 5900 5900 5898 5897 5896 5894 5894 5893 5892 5891 5890 5889 5888 5888 5887 5886 5885 5885 5884 5883 5882 5881 5880 5879 5878 5877 5877 5876
5910 5910 5910 5909 5908 5908 5907 5906 5905 5904 5903 5902 5901 5901 5900 5899 5898 5897 5896 5894 5893 5892 5891 5890 5889 5888 5887 5886 5885 5884 5884 5883 5882 5881 5880 5879 5878 5877 5876 5875 5874 5873 5872
5908 5908 5907 5907 5906 5905 5905 5904 5903 5902 5901 5900 5899 5899 5898 5897 5896 5895 5893 5892 5891 5889 5888 5887 5886 5885 5884 5883 5882 5881 5881 5880 5879 5878 5877 5876 5875 5874 5873 5871 5870 5869 5868
5905 5905 5905 5904 5904 5903 5902 5901 5900 5899 5898 5898 5897 5896 5895 5894 5893 5892 5891 5890 5888 5887 5886 5885 5884 5882 5881 5880 5879 5879 5878 5877 5876 5875 5874 5873 5872 5871 5869 5868 5867 5865 5864
5901 5902 5902 5901 5901 5900 5899 5898 5897 5896 5895 5895 5894 5893 5892 5892 5891 5890 5888 5887 5886 5884 5883 5882 5880 5879 5878 5877 5877 5876 5875 5874 5873 5872 5871 5870 5868 5867 5866 5864 5863 5861 5860
5897 5898 5898 5898 5897 5896 5896 5895 5894 5893 5892 5891 5891 5890 5890 5889 5888 5887 5886 5884 5883 5881 5880 5879 5877 5876 5875 5874 5874 5873 5871 5870 5869 5868 5867 5866 5865 5863 5862 5861 5859 5858 5856
5893 5894 5894 5893 5893 5893 5892 5891 5889 5888 5888 5887 5887 5886 5886 5886 5885 5884 5883 5881 5879 5878 5877 5875 5874 5873 5872 5871 5870 5869 5868 5867 5865 5864 5863 5862 5861 5860 5858 5857 5855 5853 5852
5889 5889 5889 5889 5889 5889 5888 5887 5886 5884 5884 5883 5883 5883 5882 5882 5881 5880 5879 5878 5876 5875 5873 5872 5870 5869 5869 5868 5867 5866 5864 5862 5861 5860 5859 5858 5857 5855 5854 5852 5850 5849 5847
5884 5885 5885 5885 5885 5885 5884 5883 5882 5881 5880 5880 5879 5878 5878 5878 5877 5876 5875 5874 5873 5871 5870 5868 5867 5866 5865 5864 5863 5862 5860 5858 5857 5856 5855 5854 5852 5851 5849 5847 5845 5844 5841
5879 5880 5880 5881 5880 5880 5879 5879 5878 5877 5876 5875 5874 5874 5874 5873 5872 5872 5871 5870 5869 5868 5866 5865 5863 5862 5861 5859 5858 5857 5856 5854 5853 5851 5850 5849 5847 5845 5843 5842 5840 5838 5836
5874 5875 5875 5875 5875 5875 5875 5874 5873 5872 5871 5870 5870 5869 5869 5869 5868 5868 5867 5866 5865 5864 5863 5861 5859 5858 5856 5855 5854 5853 5851 5850 5848 5846 5845 5843 5842 5840 5838 5836 5834 5831 5829
5868 5869 5870 5870 5870 5870 5870 5869 5868 5867 5866 5866 5865 5865 5865 5864 5864 5863 5862 5862 5861 5860 5859 5857 5856 5854 5852 5851 5849 5848 5846 5845 5843 5841 5840 5838 5836 5834 5832 5830 5827 5825 5822
5862 5863 5864 5865 5865 5865 5864 5864 5863 5862 5862 5861 5860 5860 5860 5859 5859 5858 5858 5857 5856 5855 5854 5853 5851 5849 5848 5846 5844 5843 5841 5840 5838 5836 5834 5832 5830 5828 5826 5823 5821 5818 5815
5857 5857 5858 5859 5859 5859 5859 5858 5857 5857 5856 5856 5855 5855 5855 5854 5854 5853 5853 5852 5851 5850 5849 5848 5846 5844 5843 5841 5839 5838 5836 5834 5832 5830 5828 5825 5823 5821 5819 5816 5814 5811 5808
5850 5851 5852 5853 5853 5853 5853 5852 5852 5851 5851 5851 5850 5850 5849 5849 5849 5848 5847 5846 5846 5844 5843 5842 5841 5839 5837 5835 5834 5832 5830 5828 5826 5824 5821 5819 5817 5814 5812 5809 5806 5804 5801
5844 5845 5846 5846 5846 5846 5846 5846 5846 5845 5845 5845 5844 5844 5844 5843 5843 5842 5841 5841 5840 5839 5837 5836 5834 5833 5831 5829 5828 5826 5824 5822 5820 5817 5815 5812 5810 5807 5805 5802 5799 5796 5793
5838 5839 5839 5840 5839 5839 5839 5839 5839 5839 5839 5838 5838 5838 5837 5837 5837 5836 5835 5834 5834 5833 5831 5830 5828 5826 5825 5823 5821 5819 5818 5815 5813 5810 5808 5805 5803 5800 5797 5795 5792 5789 5786
5831 5832 5832 5833 5833 5833 5832 5832 5832 5832 5832 5832 5832 5831 5831 5830 5830 5829 5829 5828 5827 5826 5824 5823 5821 5820 5818 5816 5814 5812 5810 5808 5806 5803 5801 5798 5796 5793 5790 5787 5784 5781 5778